Regional Weather Roundup
Issued by NWS

Home | Current Version | Previous Version | Text Only | Print | Product List | Glossary Off
Versions: 1 2 3 4 5 6 7 8 9 10 11 12 13 14 15 16 17 18 19 20 21 22 23 24 25 26 27 28 29 30 31 32 33 34 35 36 37 38 39 40 41 42 43 44 45 46 47 48 49 50

000
ASUS43 KMKX 210220
RWRWI

WISCONSIN REGIONAL WEATHER ROUNDUP
NATIONAL WEATHER SERVICE MILWAUKEE/SULLIVAN WI
800 PM CST SAT JAN 20 2018

NOTE: "FAIR" INDICATES FEW OR NO CLOUDS BELOW 12,000 FEET WITH NO
SIGNIFICANT WEATHER AND/OR OBSTRUCTIONS TO VISIBILITY.

WIZ001-002-006>008-014>016-023>028-210300-
NORTHWEST WISCONSIN

CITY           SKY/WX    TMP DP  RH WIND       PRES   REMARKS
SUPERIOR ARPT  FAIR      33  28  81 SW5       29.89R WCI  28
ASHLAND        FAIR      30  27  88 S5        29.90R WCI  25
HAYWARD        FAIR      25  23  92 CALM      29.89S
SIREN          FAIR      31  30  97 CALM      29.90S
CUMBERLAND     FAIR      32  30  93 S3        29.91R
RICE LAKE      FAIR      32  30  94 CALM      29.93R
CHETEK         FAIR      30  30 100 CALM      29.91S
LADYSMITH      FAIR      34  30  85 CALM      29.92S
EAU CLAIRE     FAIR      30  28  92 CALM      29.92R FOG
MENOMONIE      FAIR      31  29  93 CALM      29.93R
NEW RICHMOND   MOCLDY    34  30  85 CALM      29.92F
OSCEOLA        FAIR      33  31  94 CALM      29.95S
$$

WIZ003>005-009-010-017-018-210300-
NORTH CENTRAL WISCONSIN

CITY           SKY/WX    TMP DP  RH WIND       PRES   REMARKS
MANITOWISH WTR FAIR      26  26 100 CALM      29.88F FOG
ARBOR VITAE    MOCLDY    32  30  94 CALM      29.88F
WOODRUFF       MOCLDY    32  30  94 CALM      29.88F
RHINELANDER    FAIR      34  30  85 SW5       29.90S WCI  30
EAGLE RIVER    FAIR      29  29 100 CALM      29.88F
LAND O LAKES   FOG       27  26  99 CALM      29.90S VSB 1/4
PHILLIPS       FAIR      33  31  92 S3        29.89S
TOMAHAWK       FAIR      30  28  93 CALM      29.90F
MEDFORD        FAIR      29  28  94 CALM      29.89F
MERRILL        FAIR      30  30  98 CALM      29.92S
$$

WIZ029-030-035-036-043>047-210300-
CENTRAL WISCONSIN

CITY           SKY/WX    TMP DP  RH WIND       PRES   REMARKS
WAUSAU         FAIR      32  29  88 CALM      29.89F
MOSINEE        PTCLDY    34  30  86 CALM      29.92F
MARSHFIELD     FAIR      32  29  88 CALM      29.90F
STEVENS POINT  FAIR      28  28 100 CALM      29.93F
WAUPACA        FAIR      32  29  86 CALM      29.93F
WAUTOMA        FAIR      27  25  92 CALM      29.94S
WISC RAPIDS    FAIR      30  26  85 CALM      29.93F
CAMP DOUGLAS   FAIR      28  28  98 CALM      29.92S
$$

WIZ011>013-019>022-031-037>040-048>050-210300-
NORTHEAST WISCONSIN

CITY           SKY/WX    TMP DP  RH WIND       PRES   REMARKS
ANTIGO         FAIR      28  27  96 CALM      29.91F
SHAWANO        FAIR      33  30  87 CALM      29.93F
OCONTO         FAIR      31  29  89 CALM      29.94F
STURGEON BAY   FAIR      35  29  78 SW3       29.96R
GREEN BAY      FAIR      33  29  85 CALM      29.94F
MANITOWOC      FAIR      32  30  92 CALM      29.96S
APPLETON       MOCLDY    34  27  75 CALM      29.92F
CLINTONVILLE   FAIR      32  28  86 CALM      29.93F
OSHKOSH        FAIR      31  28  89 CALM      29.94S
$$

WIZ032>034-041-042-053>061-210300-
SOUTHWEST WISCONSIN

CITY           SKY/WX    TMP DP  RH WIND       PRES   REMARKS
LA CROSSE      FAIR      30  28  92 CALM      29.93S
SPARTA         FAIR      28  27  96 CALM      29.94R
VIROQUA        FAIR      39  32  78 E3        29.92R
BOSCOBEL       FAIR      31  27  85 CALM      29.94R
PRAIRIE DU CHI FAIR      33  28  85 CALM      29.93R
PLATTEVILLE    FAIR      37  33  85 S6        29.94R WCI  32
$$

WIZ056-057-062-063-064-067-068-210300-
SOUTH CENTRAL WISCONSIN

CITY           SKY/WX    TMP DP  RH WIND       PRES   REMARKS
REEDSBURG      FAIR      33  30  90 CALM      29.92S
BARABOO/DELLS  FAIR      34  30  85 S3        29.92S
LONE ROCK      FAIR      30  29  96 E3        29.94R FOG
MINERAL POINT  FAIR      37  36  93 SE3       29.92S
MADISON        FAIR      33  29  85 CALM      29.95F
MIDDLETON      FAIR      37  32  81 CALM      29.94S
WATERTOWN      FAIR      31  30  97 CALM      29.94S
MONROE         FAIR      36  32  87 S7        29.93S WCI  30
JANESVILLE     PTCLDY    34  32  93 CALM      29.95S
$$

WIZ051-052-058>065-066-070>072-210300-
SOUTHEAST WISCONSIN

CITY           SKY/WX    TMP DP  RH WIND       PRES   REMARKS
MILWAUKEE      FAIR      37  31  78 SW3       29.96S
WAUKESHA       CLEAR     36  28  75 CALM      29.96S
MILWAUKEE/TIMM CLEAR     34  27  75 CALM      29.96F
RACINE         FAIR      36  30  79 SW3       29.98S
BURLINGTON     FAIR      30  27  90 CALM      29.96S
KENOSHA        FAIR      36  30  79 SW3       29.96S
FOND DU LAC    FAIR      32  27  81 CALM      29.94S
SHEBOYGAN      FAIR      32  30  92 CALM      29.95S
WEST BEND      FAIR      32  30  93 CALM      29.95S
JUNEAU         FAIR      35  31  86 SE5       29.95S WCI  31
$$

LSZ147-162-210300-
LAKE SUPERIOR

STATION/POSITION TIME  TEMP    WIND        PRES    WAVE
                       AIR SEA DIR/SP/G            HT/PER
                 (UTC) (F)     (DEG/KT/KT) (MB)    (FT/S)
DEVILS ISLAND    0200   38     220/  6/  7 1012.3R
SAXON HARBOR     0140   36     190/  6/  8 1011.9R
$$

LMZ867-665-643>646-210300-
LAKE MICHIGAN

STATION/POSITION TIME  TEMP    WIND        PRES    WAVE
                       AIR SEA DIR/SP/G            HT/PER
                 (UTC) (F)     (DEG/KT/KT) (MB)    (FT/S)
NORTHPORT PIER   0200   35     210/  1/  5 1014.2
KEWAUNEE LAKESHO 0154   36      CALM  /  4 1013.5R
SHEBOYGAN LAKESH 0200   37     210/  3/  4 1014.9R
PORT WASHINGTON  0130   35     220/  1/  1 1015.6S
MILWAUKEE LAKESH 0200   39     230/  6/  6   N/A
KENOSHA   LAKESH 0200   40     220/  4/  4 1014.9
$$

TC  - TEMPERATURE IN CELSIUS
VSB - VISIBILITY IN STATUTE MILES
WCI - WIND CHILL INDEX
HX  - HEAT INDEX





USA.gov is the U.S. government's official web portal to all federal, state and local government web resources and services.